Find Starlink 37149

NORAD ID: 68309 Int'l Des: 2026-057 Owner: SPXS Country: US Constellation: starlink operational
LEOCIRCULARRETROGRADE

当前视图

正在加载3D地球...

About Starlink 37149

Starlink 37149 (NORAD 68309) is a starlink constellation satellite (v2 mini) launched Mar 20, 2026 by SPXS of US. It operates in LEO, CIRCULAR, RETROGRADE orbit with a mass of 575.00 kg.

关于 Starlink 37149

正在加载描述...

即将过境

Passes for default location (London). Set your location on the main map for personalized predictions.

高度历史

Loading altitude history...

两行轨道根数

1 68309U 26057R 26171.28141229 .00030061 00000-0 92932-3 0 9990
2 68309 97.2856 298.0272 0001542 91.1449 268.9970 15.33459530 14380
Epoch: Jun 20, 2026 • Age: 7 hours

当前状态

高度 469.0 km
速度 7.63 km/s
星下点 31.28°N, 9.01°E
发射日期 Mar 20, 2026
运行时间 0.2 years
类型 internet

技术详情

分类 Payload
质量 575.00 kg
干质量 530.00 kg
总质量 575.00 kg
长度 0.30 m
直径 4.10 m
跨度 29.00 m
形状 Box + pan
制造商 SPXS
平台类型 Starlink V2MO
阶段状态 In Orbit
所有者/国家 SPXS/US

Most Searched